Lid_Strength_Index
1 1 1 0 1 1 0 0 1 1 0 0 -0 -0 -1 -1 -2 -2 -2 -2 -2 -2 -1 -1 -1 -1 0 4 5 0 -1 -1 -1 1 2 4 5 6 9 7 6 8 7 6 5 6 6
2 1 1 1 1 1 0 1 2 1 0 -1 -1 -0 -1 -2 -2 -2 -1 -1 -2 -2 -1 -1 -1 -1 2 7 0 0 1 0 1 2 2 3 4 4 6 7 7 6 6 6 6 6 6
2 1 1 1 1 1 0 1 1 1 -0 -1 -1 -1 -2 -2 -2 -2 -2 -2 -2 -1 -1 -1 -1 -0 3 5 -0 -1 -0 1 0 2 3 2 2 5 5 8 5 6 8 7 7 6 7
2 1 1 1 1 1 1 1 1 1 -1 -1 -1 -2 -2 -2 -2 -2 -1 -1 -1 -1 -1 -1 -1 1 6 -0 -1 1 1 1 0 1 1 1 1 4 6 5 7 9 8 12 8 7 7
2 1 1 1 1 1 1 1 1 0 -1 -1 -1 -2 -2 -1 -1 -1 -1 -1 -1 -1 -1 -1 1 2 6 -1 2 1 1 3 2 2 1 1 3 6 6 9 11 10 13 11 9 7 7
2 2 1 1 1 1 2 1 0 -0 -1 -1 -1 -1 -2 -1 -1 -1 -1 -1 -1 -1 -0 -0 1 5 3 5 2 1 0 2 4 4 4 5 6 9 9 10 16 13 12 10 10 8 8
2 2 2 1 1 1 2 1 0 -0 -1 -1 -0 -1 -1 -1 -1 -1 -1 0 3 4 3 5 5 5 4 2 1 3 2 3 4 5 9 7 11 13 10 8 8 8 10 10 9 8 9
2 2 2 2 2 2 2 1 1 -0 -1 -1 -1 -1 -1 -1 -1 -1 -0 3 3 3 7 3 4 4 3 3 7 5 2 7 8 10 8 10 13 9 7 8 8 9 10 11 9 8 8
3 2 2 2 2 2 2 1 1 0 -0 -1 -1 -1 -0 1 -0 -0 1 2 -0 1 8 6 4 5 5 4 7 7 4 6 9 9 10 12 11 8 10 10 10 9 10 10 11 9 8
3 3 2 2 2 2 3 2 1 1 0 -0 -1 -1 -0 0 2 2 4 1 1 1 12 10 8 6 5 5 8 4 3 6 8 10 9 10 9 10 11 11 9 12 8 9 11 12 13
3 3 2 2 2 3 3 2 1 1 1 0 -0 -0 0 -0 2 4 3 1 2 3 18 10 8 3 4 7 7 7 3 6 10 11 10 13 11 11 12 11 8 11 8 9 10 12 12
4 3 3 2 2 3 3 3 2 1 1 1 0 -0 0 1 1 2 1 1 3 13 19 12 8 9 9 8 8 7 7 5 6 9 10 12 8 9 10 9 8 8 9 10 10 12 17
4 3 3 2 2 3 3 4 3 2 1 1 1 0 1 1 4 1 1 5 14 17 10 13 12 10 10 11 10 9 10 11 13 15 15 13 13 10 9 11 9 10 12 18 19 19 18
4 4 3 3 2 3 3 4 3 2 2 1 1 1 1 1 1 1 3 9 17 13 13 10 10 9 12 9 10 10 10 12 9 11 14 16 17 14 11 11 13 12 12 17 20 18 16
4 4 4 3 2 3 3 4 4 2 2 1 1 1 2 1 1 2 6 15 15 13 11 11 10 12 12 10 10 10 10 11 9 9 14 15 16 11 10 10 10 13 15 11 14 14 14
4 4 4 3 3 3 3 4 4 3 2 1 3 3 2 1 1 3 9 13 11 8 8 8 12 11 13 11 11 11 11 9 10 9 8 10 16 11 10 9 9 10 10 14 15 19 17
5 4 4 3 3 3 3 3 4 4 2 1 3 5 2 1 2 5 13 12 9 6 7 9 10 11 10 11 10 11 11 9 8 8 7 8 11 13 10 12 12 12 12 12 13 14 16
5 4 4 4 3 3 3 3 4 4 2 2 3 8 2 0 8 7 11 9 7 8 6 7 8 9 10 10 11 11 11 9 7 7 10 8 11 15 13 10 10 10 11 11 14 15 14
5 5 4 4 3 3 3 3 4 4 4 4 5 5 1 2 11 10 8 8 7 8 8 8 9 8 8 10 12 10 9 7 7 7 9 8 12 16 15 12 10 12 11 11 12 12 16
5 5 4 4 3 3 3 4 4 4 4 5 5 9 5 4 5 8 9 9 9 6 7 7 8 7 8 10 9 10 10 8 7 7 7 7 10 13 15 14 11 13 12 11 13 16 14
5 5 4 4 4 3 3 3 4 4 4 4 6 7 7 9 8 7 8 8 10 10 7 7 8 8 9 11 10 10 9 8 7 8 7 8 12 11 11 11 11 12 12 11 14 12 16
5 5 5 4 4 3 3 3 4 4 3 4 9 10 7 7 7 8 8 9 10 9 9 9 9 8 8 10 10 10 9 9 9 8 8 8 14 12 14 12 12 13 11 11 11 12 11
4 5 5 4 4 3 3 3 4 4 4 5 5 6 9 7 8 8 8 9 9 8 7 7 7 8 9 8 7 7 7 7 7 8 9 9 12 13 15 13 12 15 12 11 11 10 10
4 5 5 4 4 3 3 4 3 4 5 5 6 6 10 11 9 8 8 8 8 8 9 7 6 8 7 5 6 6 6 7 7 7 7 10 11 12 14 13 19 12 9 9 10 10 9
4 4 4 4 4 3 3 3 3 4 4 6 5 7 8 12 10 10 7 8 7 7 8 7 6 5 4 6 9 11 11 10 10 8 8 7 10 13 15 15 12 11 10 11 11 11 8
3 3 3 3 4 4 3 3 3 4 5 5 5 5 7 10 11 10 10 7 9 8 8 7 5 3 5 7 10 14 15 12 13 12 8 9 8 12 14 17 18 12 8 7 8 14 7
2 2 2 3 3 3 3 3 3 3 4 5 5 5 7 10 9 9 11 10 6 7 9 7 7 7 5 9 12 13 13 10 14 14 13 12 12 14 14 15 12 9 7 8 15 14 7
1 2 2 2 2 3 3 3 3 3 3 4 5 4 7 10 10 9 9 10 9 7 9 7 8 7 8 11 11 12 12 11 11 10 11 12 13 14 13 15 17 8 8 11 9 6 6
1 1 2 2 2 2 3 2 3 3 3 3 7 5 5 9 10 8 9 9 9 9 10 6 7 7 7 9 9 9 11 10 11 14 9 13 10 12 12 12 8 7 7 6 6 6 6